User: anonymous   Login
Location: Palmerston North
(40.3500°S, 175.6170°E)
Time: 15:08:03
(UTC+13:00)
Language:

SL-08 R/B - Orbit

View from above orbital plane
View from above orbital plane
View from above satellite
View from above satellite

Ground track
Ground track

The orbit data is extracted from the following two-line orbital elements,

1 28381U 04028B   19288.85402394 -.00000031  00000-0 -45897-4 0  9992
2 28381  82.9575  62.6620 0032335 157.9822 311.1990 13.78248388766131
Epoch (UTC): 15 October 2019 20:29:47
Eccentricity: 0.0032335
inclination: 82.9575°
perigee height: 946 km
apogee height: 994 km
right ascension of ascending node: 62.6620°
argument of perigee: 157.9822°
revolutions per day: 13.78248388
mean anomaly at epoch: 311.1990°
orbit number at epoch: 76613

The dashed part of the orbit path shows where the satellite is in the earth's shadow,  

DLR